This is the latest recevied weather packets stored in our database for station/object W7SA-12. If no packets are shown the sender has not sent any weather packets the latest 10 day(s).
| Time | Temp. | Humidity | Pressure | Rain* | Wind** | Luminosity | Snow |
|---|---|---|---|---|---|---|---|
| 1777939975 | 20.56° C | 37% | 1014 hPa | 0 mm | - | - | - |
| 1777939676 | 21.11° C | 34% | 1014 hPa | 0 mm | - | - | - |
| 1777939377 | 22.22° C | 34% | 1014 hPa | 0 mm | - | - | - |
| 1777939075 | 22.22° C | 33% | 1014 hPa | 0 mm | - | - | - |
| 1777938776 | 22.78° C | 32% | 1014 hPa | 0 mm | - | - | - |
| 1777938475 | 22.78° C | 33% | 1014 hPa | 0 mm | - | - | - |
| 1777938175 | 22.22° C | 33% | 1014 hPa | 0 mm | - | - | - |
| 1777937875 | 22.78° C | 32% | 1014 hPa | 0 mm | - | - | - |
| 1777937575 | 22.78° C | 32% | 1014 hPa | 0 mm | - | - | - |
| 1777937275 | 23.33° C | 31% | 1014 hPa | 0 mm | - | - | - |
| 1777936975 | 23.33° C | 29% | 1014 hPa | 0 mm | - | - | - |
| 1777936675 | 23.33° C | 25% | 1014 hPa | 0 mm | - | - | - |
| 1777936375 | 23.89° C | 24% | 1014 hPa | 0 mm | - | - | - |
| 1777936176 | 24.44° C | 22% | 1014 hPa | 0 mm | - | - | - |
| 1777936075 | 24.44° C | 22% | 1014 hPa | 0 mm | - | - | - |
| 1777935775 | 24.44° C | 23% | 1014 hPa | 0 mm | - | - | - |
| 1777935475 | 24.44° C | 23% | 1014 hPa | 0 mm | - | - | - |
| 1777935175 | 24.44° C | 22% | 1013.2 hPa | 0 mm | - | - | - |
| 1777934875 | 24.44° C | 22% | 1013.1 hPa | 0 mm | - | - | - |
| 1777934575 | 25° C | 22% | 1013.1 hPa | 0 mm | - | - | - |
| 1777934275 | 25.56° C | 21% | 1013.2 hPa | 0 mm | - | - | - |
| 1777934209 | 25.56° C | 20% | 1013.2 hPa | 0 mm | - | - | - |
| 1777933977 | 25.56° C | 20% | 1013.2 hPa | 0 mm | - | - | - |
| 1777933914 | 26.11° C | 20% | 1013.1 hPa | 0 mm | - | - | - |
| 1777933675 | 26.11° C | 20% | 1013.1 hPa | 0 mm | - | - | - |
* Rain latest hour (hover to see other rain measurements)
** Current wind speed in m/s (hover to see current wind gust speed)